STARLINK-1502, 45764

Orbit data source: Space-Track

STARLINK-1502, 45764 is a payload satellite owned by SpaceX/Seattle (US) in LEO that was launched on Sat, 13 Jun 2020 UTC via an FALCON 9 launch vehicle from the Air Force Eastern Test Range (AFETR). Payload-class satellites include a variety of spacecraft equipped with specific instruments for various scientific and technological missions. These include communications satellites like Starlink; space stations such as the ISS; scientific satellites like the Hubble; Earth observation satellites from companies like Planet Labs, Umbra, and HawkEye 360; GPS; miniature CubeSats for education and research; and military/defense satellites.

Not visible in the next 10 days
Identifier
45764, 2020-038AL
Orbit
LEO
Country
Flag of USUS
Related business
Manufacturer
SpaceX/Seattle
Mission
Partially operational Commercial Communications
Bus & Motor
STARLINK, Unknown motor
Mass
260 kg wet, ~248 kg dry
Launch date (UTC)
2020-06-13 (6 years ago)
Launch vehicle
FALCON 9
Launch site
Air Force Eastern Test Range (AFETR)
Object type
Payload
Rocket body
Debris
Shape & HBR
Box + 1 Pan, 10.1 m
Radar Cross Section
13.562 m², Large (>1 m²)

Expand to show TLE details & history
Last TLE update: 1 day ago

TLE from 1 day ago
0 STARLINK-1502
1 45764U 20038AL  26235.96121488  .00080662  00000-0  59094-3 0  9998
2 45764  53.0410 110.4214 0003166 118.8463 241.2873 15.72493106342757
Epoch: 2026-08-23T23:04Z
TLE epoch observation values (Epoch: 2026-08-23T23:04:08.965Z)
Latitude
Longitude
152.13428°
Altitude
353.702 km
Speed
7.698 km/s
True Right ascension
07h 21m 41s
True Declination
0° 00' 00"
Sunlit
Object was in daylight at epoch
Visualization orbit readout
Latitude
Unknown
Longitude
Unknown
Altitude
Unknown
Speed
Unknown
Apparent Right ascension
Unknown
Apparent Declination
Unknown
Sunlit
N/A
Visualization observer readout
Local Sidereal Time
13:48:17
Azimuth
Unknown
Elevation
Unknown
Doppler factor
Unknown
Orbital elements
Apogee altitude
354.186 km
Perigee altitude
349.924 km
Semi-major axis
6,730.192 km
Eccentricity
0.00032
Inclination
53.041°
RAAN
110.4214°
Arg. of periapsis
118.8463°
True anomaly
241.25549°
Mean anomaly
241.2873°
Eccentric anomaly
241.27139°
Mean motion
3.93099 °/min
Orbital period
91.58 mins
BSTAR
0.00059094
Loading maneuver chart data...
Computing Atmospheric mass density...

Documentation

Showing up to 5 results
|